Location: ??
(35.1715°N, 139.6450°E)
Time: 20:59:17
(UTC+00:00)

USA 234 - Pass Details

Date: 05 August 2024
Orbit: 1100 x 1107 km, 123.0° (Epoch: 08 July)

Event Time Altitude Azimuth Distance (km) Brightness Sun altitude
Rises 19:11:27 0° 38° (NE) 3,929 7.5 -8.8°
Reaches altitude 10° 19:14:02 10° 33° (NNE) 2,968 6.6 -8.3°
Maximum altitude 19:20:13 47° 322° (NW) 1,425 3.8 -7.2°
Drops below altitude 10° 19:26:24 10° 251° (WSW) 2,954 4.8 -6.1°
Enters shadow 19:27:12 - 249° (WSW) 3,247 5.0 -5.9°
